星链-36758(STARLINK-36758)

导读

STARLINK-36758是美国SpaceX公司星链互联网星座的卫星,于2026年2月22日由猎鹰9号火箭发射升空,属于Starlink 6-104组网批次。它运行在近地轨道,旨在为全球提供高速低延迟卫星互联网服务,尤其覆盖传统网络难以企及的偏远区域。本次发射中猎鹰9号助推器完成第33次回收,刷新了SpaceX重复使用纪录,也推动星链星座规模进一步扩展。

基本信息
目录编号:
67926
目录名称:
STARLINK-36758
国际标识:
2026-036Y
轨道中心:
EARTH
卫星名称:
星链-36758
卫星全名:
星链-36758(STARLINK-36758)
卫星状态:
在轨 (已飞行111 天)
发射日期:
2026-02-22 UTC
国别 :
美国 (US)
星等 :
--
轨道信息
数据来源 国际轨道数据
星历时间: 2026-06-11T09:42:47+0800
2天前
查看轨道信息
半长轴: 6861.116km
偏心率: 0.0000768
轨道倾角: 43.002°
近地点辐角 254.993°
升交点赤经 77.887°
平近点角 105.084°
近地点: 482.452km
远地点: 483.506km
周期: 94.265分钟
每日圈数: 15.276035
详细信息
固有亮度:
5
最大亮度:
2.5
卫星平台:
Starlink V1.0
覆盖范围:
全球
运营商:
太空探索技术公司
运营商所在国:
美国
制造商(研发单位):
太空探索技术公司
制造商所在国:
美国
使用方式:
暂无
卫星简介
Starlink 计划是 SpaceX 推出的全球卫星互联网项目,通过发射低轨道卫星,为全球尤其是偏远地区提供高速、低延迟的互联网服务。自 2019 年起,Starlink 已部署数千颗卫星,旨在缩小全球数字鸿沟,推动互联网普及。该项目还为军事、航空等行业提供通信支持,带来广泛经济效益。
2D轨道图
3D轨道图
轨道高度分析图
轨道倾角分析图
轨道综合分析图
查看轨道综合分析图